Grizzly Air Cargo 5144


KDEN
Denver International Airport
Denver, Colorado, US
PANC
Ted Stevens Anchorage International Airport
Anchorage, Alaska, US

Activity Log

Date Flight Route Aircraft Duration
No Flights Yet

Route Details

Aircraft Information
Primary: Boeing 727-200F
Backup: Boeing 737-800BCF
Route Data
Distance: 2088nm
Sched. Duration: 5h 34m
Avg. Duration: 0h 00m (-535m)
Times Flown: 0
Recm'd Route: RIKKK4 FISAR BIL J13 GTF J569 DORSE 52N20 RIBIT AKTEX 59N40 JOH WITTI4
Planned Altitude: 36,000ft
Origin Wx: KDEN 220153Z 11009KT 10SM FEW090 BKN140 BKN220 02/M09 A2995 RMK AO2 SLP139 T00171089
Dest. Wx: PANC 220153Z 10006KT 10SM BKN065 OVC090 01/M03 A3014 RMK AO2 SLP210 T00111033
Notes:

Financial History
Total Freight: 0lbs
Average Load: 0lbs/flt
Fuel Used: 0lbs
Avg. Fuel Used: 0lbs/flt
Fuel Expense: $0
Avg. Fuel Expense: $0
Avg. Fuel Cost: $0/lbs
Total Gross Income: $0
Pilot Pay: $0
Total Expenses: $0
Total Revenue: $0
Average Revenue: $0